Regional Weather Roundup
Issued by NWS Goodland, KS

Home | Current Version | Previous Version | Text Only | Print | Product List | Glossary On
Versions: 1 2 3 4 5 6 7 8 9 10 11 12 13 14 15 16 17 18 19 20 21 22 23 24 25 26 27 28 29 30 31 32 33 34 35 36 37 38 39 40 41 42 43 44 45 46 47 48 49 50
000
ASUS43 KGLD 151208
RWRGLD

GOODLAND FORECAST AREA HOURLY WEATHER ROUNDUP
NATIONAL WEATHER SERVICE GOODLAND KS
500 AM MST FRI DEC 15 2017

...OFFICIAL OBSERVATIONS...

CITY           SKY/WX    TMP DP  RH WIND       PRES   REMARKS
GOODLAND KS    CLOUDY    21  15  78 SW13      30.09F WCI   9
HILL CITY KS   CLOUDY    19  16  88 W8        30.16F
IMPERIAL NEB   CLOUDY    18  14  84 W12       30.07F WCI   5
MCCOOK NEB     CLOUDY    16  13  88 W8        30.10F
AKRON CO       CLOUDY    19  11  70 W13       30.05F WCI   6
BURLINGTON CO  CLOUDY    21  17  84 W12       30.09F WCI   9
LIMON CO       CLOUDY     4   2  91 NW6       30.09F
$$

...UNOFFICIAL OBSERVATIONS...

CITY           SKY/WX    TMP DP  RH WIND       PRES   REMARKS
COLBY KS       CLOUDY    14  14 100 W7        30.12F
LENORA KS        N/A     19  32 100 W7          N/A
NORTON KS      CLEAR     16  10  79 SW8       30.11
SHARON SPRINGS   N/A     21  18  87 SW10        N/A  WCI  10
TRIBUNE KS     CLOUDY    21  16  79 SW10      30.18F WCI  10
KIT CARSON CO    N/A     17  13  84 CALM        N/A
YUMA CO        FAIR      19  12  73 W7        30.07F
$$



USA.gov is the U.S. government's official web portal to all federal, state and local government web resources and services.